Vorticity
6 6 5 5 5 5 5 5 5 0 -0 8 7 8 8 8 9 9 9 8 10 12 12 10 7 7 8 7 5 5 5 5 5 6 5 5 4 4
7 7 7 6 6 6 7 7 8 8 -1 4 9 10 9 8 8 10 11 11 12 11 8 6 7 8 8 6 5 5 5 4 4 3 3 3 2 2
9 6 7 7 7 7 7 7 7 11 11 -2 5 9 9 8 8 8 8 10 12 8 3 7 7 8 7 5 3 2 2 3 2 2 2 3 2 1
8 8 7 8 7 7 7 7 7 8 11 10 7 5 6 10 12 12 12 12 12 10 8 6 7 8 6 5 5 5 3 2 2 4 3 2 2 2
7 8 8 9 9 11 12 13 12 12 13 15 12 12 9 6 6 9 11 11 10 11 12 11 8 5 4 6 6 5 5 4 4 4 3 4 5 4
11 11 10 11 11 10 10 11 11 10 10 9 8 8 8 7 7 6 5 7 8 9 10 10 10 9 8 8 7 8 7 8 8 7 6 4 4 5
9 10 11 11 12 12 10 9 8 8 9 10 11 10 11 11 11 9 10 9 7 6 6 7 9 9 7 7 7 5 4 3 4 3 5 5 7 7
10 11 11 11 13 13 14 16 15 13 11 11 10 10 8 7 7 7 8 7 6 2 5 1 2 3 3 4 4 4 4 5 5 6 9 13 18 20
17 16 14 14 13 12 10 8 7 5 6 6 5 3 2 2 3 1 1 1 2 3 6 6 10 11 14 14 15 16 17 20 21 22 27 26 27 26
13 11 9 6 4 3 3 3 3 4 2 0 0 1 3 5 11 17 20 22 23 24 25 23 23 19 18 19 21 23 24 28 31 31 43 31 34 34
8 7 7 6 5 2 2 2 2 4 8 12 18 24 25 24 26 26 24 22 22 20 27 29 28 33 33 35 35 35 37 37 26 27 39 21 30 24
0 1 2 6 8 9 11 12 14 17 18 18 20 24 27 30 34 40 46 41 40 39 24 26 33 34 35 35 34 34 42 39 25 47 -0 33 25 17
2 4 5 6 7 10 16 22 24 26 25 27 28 32 40 43 35 17 19 16 10 14 26 32 32 32 29 27 25 37 -0 7 18 37 22 6 9 11
7 6 12 16 19 24 28 27 24 23 27 35 45 42 24 10 8 18 8 8 10 22 28 34 17 30 26 20 11 16 -9 44 9 12 10 15 7 8
18 21 22 24 28 25 19 23 29 33 34 28 12 4 12 14 21 12 10 20 47 18 27 6 20 4 35 -1 3 31 33 1 14 10 21 6 5 6
19 26 27 20 17 23 30 32 27 17 8 4 9 16 15 15 12 22 22 22 7 29 -11 19 3 23 -9 19 17 11 13 13 18 15 6 4 5 9
26 20 15 20 25 31 33 17 11 8 6 13 14 15 15 26 26 33 15 1 19 6 14 21 21 16 22 9 11 17 18 15 9 6 3 4 9 12
11 14 19 24 39 24 13 9 7 11 17 13 18 27 18 20 18 13 26 39 9 19 18 2 11 7 17 9 13 18 13 10 8 5 5 11 16 19
12 18 26 37 13 9 9 8 14 15 15 21 19 30 7 24 24 46 17 11 11 8 18 22 21 15 12 11 8 6 6 6 9 16 20 18 16 13
20 29 31 9 6 8 10 17 14 16 19 29 13 10 10 19 17 8 15 12 15 14 11 8 8 8 8 9 13 19 21 19 18 15 14 14 14 16
34 20 5 8 12 14 18 18 17 17 41 -1 14 4 13 21 16 7 14 15 9 9 10 10 11 14 20 18 17 16 16 16 16 18 15 14 17 19
10 6 11 16 16 17 21 17 19 27 14 11 9 11 10 19 15 14 7 8 8 12 14 19 21 17 18 16 18 25 24 20 16 13 14 14 14 13
9 13 16 20 18 20 17 30 22 7 17 9 7 20 5 17 5 11 10 6 5 11 9 7 8 10 1 -2 -0 -1 2 7 11 15 18 17 10 9
Height
5669 5667 5664 5662 5659 5656 5653 5650 5647 5649 5649 5645 5642 5639 5635 5633 5631 5630 5628 5624 5622 5622 5621 5621 5621 5620 5620 5620 5620 5620 5621 5622 5623 5624 5625 5626 5627 5629
5655 5652 5649 5646 5643 5640 5636 5633 5630 5627 5627 5626 5624 5621 5618 5615 5612 5611 5610 5608 5607 5605 5602 5601 5601 5601 5602 5602 5602 5602 5602 5603 5603 5605 5605 5606 5608 5609
5639 5635 5631 5628 5625 5621 5618 5615 5612 5608 5607 5605 5603 5600 5598 5595 5593 5590 5588 5588 5588 5585 5583 5580 5579 5579 5580 5580 5580 5581 5581 5581 5582 5583 5584 5585 5586 5587
5620 5617 5613 5609 5606 5602 5598 5595 5591 5588 5586 5584 5581 5579 5577 5574 5572 5570 5567 5565 5564 5563 5561 5559 5557 5556 5556 5556 5556 5556 5557 5557 5558 5559 5560 5562 5563 5564
5603 5599 5595 5591 5587 5582 5578 5574 5570 5567 5564 5564 5562 5558 5555 5551 5549 5547 5545 5544 5541 5538 5537 5536 5533 5531 5531 5530 5531 5531 5531 5532 5533 5533 5534 5536 5537 5539
5583 5579 5575 5570 5566 5563 5559 5554 5551 5547 5543 5541 5540 5536 5531 5528 5525 5523 5523 5520 5518 5514 5511 5509 5508 5505 5503 5502 5504 5505 5505 5506 5506 5507 5508 5509 5510 5512
5566 5560 5555 5551 5546 5542 5538 5535 5531 5527 5523 5520 5517 5513 5509 5505 5500 5497 5495 5493 5493 5489 5487 5485 5481 5478 5476 5473 5473 5474 5475 5476 5477 5478 5479 5480 5483 5484
5548 5543 5537 5531 5526 5521 5517 5512 5507 5502 5500 5495 5492 5489 5487 5481 5476 5472 5469 5466 5468 5459 5456 5458 5451 5450 5445 5442 5441 5442 5443 5444 5445 5447 5447 5450 5453 5456
5528 5523 5519 5512 5507 5503 5498 5493 5488 5481 5475 5469 5466 5462 5460 5452 5448 5444 5440 5435 5435 5431 5424 5426 5419 5420 5413 5410 5408 5409 5410 5412 5414 5415 5418 5421 5425 5429
5510 5504 5499 5494 5488 5483 5479 5474 5469 5463 5455 5448 5441 5436 5430 5423 5414 5410 5407 5403 5400 5399 5389 5390 5385 5386 5380 5380 5379 5378 5381 5383 5384 5388 5393 5395 5401 5406
5493 5486 5481 5475 5468 5460 5453 5448 5442 5437 5427 5420 5412 5405 5399 5393 5383 5375 5373 5367 5368 5367 5362 5355 5355 5352 5352 5352 5352 5354 5356 5359 5362 5368 5372 5376 5383 5388
5476 5469 5461 5453 5445 5435 5425 5417 5411 5406 5397 5392 5385 5376 5369 5363 5357 5349 5346 5342 5341 5340 5342 5332 5330 5328 5329 5330 5331 5334 5338 5343 5348 5353 5359 5365 5371 5377
5453 5447 5439 5429 5421 5411 5400 5391 5382 5376 5371 5364 5359 5354 5347 5342 5338 5334 5332 5328 5327 5325 5321 5316 5315 5313 5313 5317 5319 5324 5329 5333 5338 5342 5349 5355 5361 5367
5429 5422 5413 5404 5394 5386 5375 5366 5358 5351 5346 5343 5339 5335 5332 5329 5326 5323 5321 5318 5314 5312 5309 5307 5306 5305 5306 5311 5316 5319 5323 5326 5331 5337 5342 5347 5353 5359
5405 5397 5387 5377 5369 5362 5355 5346 5339 5334 5330 5328 5326 5324 5321 5318 5315 5312 5310 5307 5304 5302 5302 5302 5303 5303 5305 5308 5311 5312 5316 5321 5326 5331 5336 5341 5346 5351
5381 5376 5368 5359 5351 5343 5337 5332 5327 5323 5321 5319 5317 5314 5310 5307 5305 5302 5301 5299 5298 5296 5296 5297 5297 5299 5301 5303 5306 5309 5313 5317 5321 5326 5331 5335 5339 5342
5360 5357 5350 5342 5336 5329 5324 5322 5319 5316 5313 5310 5307 5304 5301 5299 5295 5293 5293 5293 5293 5292 5292 5292 5293 5294 5297 5299 5302 5305 5309 5313 5317 5321 5325 5328 5331 5333
5344 5338 5333 5326 5321 5318 5316 5314 5311 5308 5305 5302 5299 5296 5294 5292 5290 5289 5287 5287 5288 5288 5289 5290 5291 5292 5294 5297 5299 5302 5305 5309 5312 5315 5317 5319 5321 5325
5329 5324 5319 5314 5312 5310 5308 5305 5303 5299 5297 5295 5293 5291 5290 5288 5286 5284 5284 5285 5286 5286 5286 5287 5288 5290 5292 5294 5296 5299 5301 5303 5305 5307 5309 5311 5314 5318
5316 5312 5308 5306 5304 5301 5299 5296 5294 5292 5290 5290 5289 5288 5287 5285 5285 5284 5285 5284 5284 5284 5285 5285 5286 5288 5289 5291 5292 5294 5295 5297 5298 5301 5303 5305 5309 5312
5304 5302 5300 5297 5295 5293 5291 5289 5287 5286 5285 5286 5286 5286 5285 5284 5284 5284 5284 5284 5284 5284 5284 5284 5284 5285 5286 5288 5289 5290 5291 5292 5294 5296 5298 5301 5304 5308
5295 5294 5292 5289 5287 5285 5284 5282 5282 5281 5282 5283 5284 5283 5283 5282 5283 5283 5283 5284 5284 5283 5283 5283 5283 5284 5285 5287 5287 5287 5289 5290 5292 5294 5296 5299 5301 5304
5288 5286 5283 5281 5280 5279 5278 5277 5278 5280 5281 5281 5282 5282 5282 5282 5283 5283 5283 5283 5283 5283 5283 5282 5283 5284 5285 5286 5287 5288 5289 5290 5291 5293 5294 5296 5298 5301